Von / Nach
Hinflug - Rückflug
Erwachsene / Kinder
Promocode
Nächste Ankünfte Flughafen St.Gallen-Altenrhein

ZeitErw.vonFlugInfo
20:5520:55WienPE107
gelandet
Nächste Abflüge Flughafen St.Gallen-Altenrhein

Zur Zeit stehen leider keine aktuellen Fluginformationen zur Verfügung.

Flugplan

Bitte wählen Sie Ihren gewünschten Abflug- und Zielflughafen aus.


Live aus Altenrhein
LIVE
LSZR 191820Z 24004KT 6000 BR BKN027 12/10 Q1022 NOSIG RMK P
Zeitraffer heute
2018-10-19 00:14:12
LSZR 182150Z AUTO 21003KT 7000 NCD 11/09 Q1019
Zeitraffer gestern
2018-10-18 00:14:04
LSZR 172150Z AUTO 11003KT 9000 NCD 09/08 Q1018

 

Ab Memmingen nach Korsika und Neapel

Flüge von April - Oktober jeweils sonntags (2x täglich) mit People's ab

Memmingen nach Calvi. Flüge und Pauschalangebote bei Rhomberg Reisen buchbar.

Zum Flugplan & weiteren Infos

 

Flüge von April - November jeweils sonntags mit People's nach Neapel.

Nur-Flug-Angebote hier bei People's buchbar / Pauschalangebote bei

Amos Reisen buchbar. Zum Flugplan & weiteren Infos

 

Ab Salzburg nach Preveza

Flüge von Juni - September mit People's ab Salzburg nach Lefkas & Epirus.

Flugplan 2019 folgt.

 

Flughafen St.Gallen-Altenrhein, Schweiz

Flughafenstrasse 11

CH-9423 Altenrhein

A: +43 5572 203 610

CH: +41 71 858 51 60

E: info@peoples.ch

 

Linienflüge Wien-Altenrhein bis zu 4 Mal täglich und in den Sommermonaten

ab Altenrhein nach Ibiza, Mallorca, Menorca, Lefkas & Epirus, Kefalonia, Pula, Lamezia Terme, Neapel

und Sardinien.


 

Wien

Flüge bis zu 4 Mal täglich zwischen Altenrhein und Wien. Mehr Infos

 

Flüge ab Wien nach Preveza (Lefkas & Epirus) von Juni bis September,

jeweils dienstags. Flugplan 2019 folgt.

 

Cagliari, Sardinien

Flüge ab Altenrhein von Mai – Oktober immer samstags.

Nur-Flug- und Pauschalangebote bei High Life Reisen buchbar.

 

Flugplan & Buchungsmöglichkeiten


 

Calvi, Korsika

Flüge von April – Oktober jeweils am Sonntag (2x täglich) ab Memmingen

nach Korsika. Flug- und Pauschalangebote bei Rhomberg Reisen buchbar. Weitere Infos & Flugplan

 

Kefalonia, Griechenland

Flüge von Juni – September immer freitags ab Altenrhein nach Kefalonia.

Flugplan 2019 folgt.

 

Weitere Infos & Buchung


 

Ibiza

Flüge ab Altenrhein von Juni - August immer am Donnerstag & Sonntag. Flugplan 2019 folgt.

 

 

Menorca, Balearen

Flüge ab Altenrhein nach Menorca von Mai - Oktober immer samstags. Flugplan 2019 folgt.



 

Neapel, Italien

Flüge ab Altenrhein (nur an ausgewählten Daten) & Memmingen von

April - November immer sonntags. Flüge hier bei People's und Pauschalangebote

bei Amos Reisen buchbar. Weitere Info & Flugplan


 

Olbia, Sardinien

Flüge ab Altenrhein von Mai – Oktober immer samstags.

Nur-Flug- und Pauschalangebote bei High Life Reisen buchbar.

Flugplan & Buchungsmöglichkeiten.

 

Palma de Mallorca

Flüge ab Altenrhein von Mai – Oktober immer freitags & sonntags.

Flugplan 2019 folgt.


 

Pula, Kroatien

Flüge ab Altenrhein von Mai – Oktober immer samstags. Flugplan 2019 folgt.


 

Preveza, Griechenland

Flüge von Mai – Oktober immer dienstags ab Altenrhein, Salzburg

und Wien nach Lefkas & Epirus. Flugplan 2019 folgt.


 

Lamezia Terme, Italien

Flugplan 2019 und weitere Informationen folgen.


Destinationen

Alle Flugziele von People's auf einen Blick.

 

Mehr dazu

Wien

Ab EUR 109.- hin & zurück.

 

Jetzt buchen

General Aviation

Business & General Aviation LSZR.

 

More information

 

 Shuttlebus


Nutzen Sie unseren

Shuttlebus zwischen Altenrhein

und Dornbirn & Bregenz.

 

Mehr dazu

 

People's Online-Shop


Von der Überraschung an

Bord über Badetücher bis

zum Flugzeugmodell.

 

Mehr dazu


News


Aktuelles von People's

und dem Flughafen

St.Gallen-Altenrhein.

 

Mehr dazu

 

Ad-hoc Charter


Chartern Sie eine unserer

Embraer170 für Ihren eigenen

Anlass oder ACMI-Einsätze.


Mehr dazu

  

 

Teile dein People's-Erlebnis mit uns:

 

#peoplesairline auf Instagram